Location: LDNL
(36.4545°S, 141.6685°E)
Time: 00:25:04
(UTC+11:00)

Hubble Space Telescope - Visible Passes

Search period start: 07 October 2022 00:00
Search period end: 17 October 2022 00:00
Orbit: 531 x 535 km, 28.5° (Epoch: 05 October)

Date Brightness Start Highest point End Pass type
(mag) Time Alt. Az. Time Alt. Az. Time Alt. Az.
07 Oct 2.1 05:38:34 23° NNW 05:39:07 24° N 05:42:28 10° NE visible
08 Oct 2.3 05:27:04 22° N 05:27:04 22° N 05:29:59 10° NE visible
09 Oct 2.7 05:15:38 18° NNE 05:15:38 18° NNE 05:17:27 10° NE visible
10 Oct 3.2 05:04:17 12° NNE 05:04:17 12° NNE 05:04:50 10° NNE visible
16 Oct 2.9 20:51:28 10° N 20:52:59 12° NNE 20:53:13 12° NNE visible
